Content
SEND FEEDBACK

Daily
Averages
Monthly
Summary
Iran

NARANJ BON, IRAN


Home > Middle East > Iran
Elevation: -66 feet     Latitude: 36 54N     Longitude: 050 40E

WEATHER
 
SELECT A DAY
Number of Records: 70,367;   Date Range: 8/17/02 - 8/10/14
 
SHARE

PRINT THIS DATA

[ ← Previous Day ]
WEATHER ALMANAC - JANUARY 31, 2013
[ Next Day → ]
[ °C ]   °F
Weather ElementAverageHighLow
Temperature49.1 °F53.6 °F (11:30 am)42 °F (3:30 am)
Dewpoint45.1 °F48.2 °F (6:30 pm)39.2 °F (1:30 am)
Humidity86.2 %100 % (6:30 am)72 % (11:30 am)
Barometer29.82 in29.89 in (3:30 am)29.77 in (2:30 pm)
Wind Speed4.6 mph16.1 mph (12:30 pm)
Weather ElementAverage
Visibility5.4 mi
Wind DirectionENE (75.9 °)

Weather ElementTotal
Precipitation---
Heating Degree Days17.2 (Base 65)
Averaged from 24 records on January 31, 2013
WEATHER CONDITIONS BREAKOUT
WIND DIRECTION BREAKOUT
WEATHER BY HOUR - JANUARY 31, 2013
[ °C ]   °F
Local TimeTemperatureDewpointHumidityBarometerVisibilityWind DirectionWind SpeedGust SpeedPrecipitationEventsConditions
1:30 AM42.8 °F39.2 °F87 %29.86 inVariable2.3 mphClear
2:30 AM42.8 °F39.2 °F87 %29.86 inSouth (180°)4.6 mphClear
3:30 AM42.0 °F40.0 °F89 %29.89 in6.0 miCalmClear
5:30 AM42.8 °F41.0 °F93 %29.86 inCalmClear
6:30 AM42.8 °F42.8 °F100 %29.89 inSouth (180°)4.6 mphClear
7:30 AM42.8 °F42.8 °F100 %29.89 inVariable2.3 mphClear
8:30 AM48.2 °F46.4 °F93 %29.89 in6.2 miSSE (150°)4.6 mphMostly Cloudy
9:30 AM51.8 °F46.4 °F82 %29.86 in6.2 miSSE (150°)6.9 mphMostly Cloudy
10:30 AM51.8 °F46.4 °F82 %29.86 in6.2 miSSE (160°)6.9 mphMostly Cloudy
11:30 AM53.6 °F44.6 °F72 %29.86 in6.2 miSSE (160°)9.2 mphMostly Cloudy
12:30 PM53.6 °F46.4 °F77 %29.80 in6.2 miEast (100°)16.1 mphMostly Cloudy
1:30 PM51.8 °F46.4 °F82 %29.80 in6.2 miEast (100°)13.8 mphMostly Cloudy
2:30 PM51.8 °F46.4 °F82 %29.77 in6.2 miEast (90°)9.2 mphMostly Cloudy
3:30 PM52.0 °F47.0 °F78 %29.78 in6.0 miEast (100°)6.7 mphOvercast
3:30 PM51.8 °F46.4 °F82 %29.77 in6.2 miEast (100°)6.9 mphOvercast
4:30 PM51.8 °F46.4 °F82 %29.77 in6.2 miESE (120°)6.9 mphOvercast
5:30 PM51.8 °F46.4 °F82 %29.77 in6.2 miVariable2.3 mphOvercast
6:30 PM51.8 °F48.2 °F88 %29.80 in6.2 miEast (80°)4.6 mphOvercast
7:30 PM50.0 °F46.4 °F87 %29.80 in3.7 miCalmLight Drizzle
8:30 PM50.0 °F48.2 °F94 %29.80 in4.3 miVariable2.3 mphLight Drizzle
9:30 PM50.0 °F4.0 miCalmOvercast
9:30 PM50.0 °F42.8 °F76 %29.77 in4.3 miCalmLight Drizzle
10:30 PM50.0 °F48.2 °F94 %29.77 in3.7 miCalmRainLight Rain
11:30 PM50.0 °F48.2 °F94 %29.77 in3.1 miCalmRainLight Rain
Hourly data recorded from OINR, located miles away from Naranj Bon, Iran







STORIES FROM OUR PARTNERS